Wind_Speed
3 3 3 3 3 3 3 3 4 4 5 6 7 7 8 8 9 8 8 3 3 4 5 4 3 1 2 4 4 3 4 3 5 6 3 1 2 1 2 1 2 4 2 5 9
6 6 6 6 5 5 5 5 5 6 6 7 7 8 9 8 9 8 3 3 3 5 5 4 4 3 3 3 2 4 3 6 5 4 3 2 1 2 1 4 1 3 3 2 4
10 9 9 8 7 7 7 7 7 7 8 8 8 8 9 9 8 1 1 2 4 5 6 6 6 3 3 2 2 2 4 4 3 4 3 3 1 0 2 2 2 3 2 3 3
13 12 11 10 10 9 9 9 9 9 9 9 9 10 9 7 1 1 2 3 5 7 8 7 3 2 3 2 1 2 1 2 0 3 3 3 2 3 1 4 2 3 0 3 3
16 15 14 13 12 11 11 10 10 10 9 10 10 10 9 5 5 6 4 5 5 7 7 4 1 3 4 4 2 2 0 2 4 7 7 5 6 4 1 6 7 6 3 1 4
19 18 16 15 14 13 13 12 11 11 10 11 10 10 8 5 7 7 7 7 8 9 8 5 2 4 6 3 3 1 2 7 7 5 6 5 3 4 5 12 9 4 4 5 5
21 20 18 16 15 15 14 14 13 12 12 11 10 10 11 13 9 7 8 8 9 9 9 6 4 5 7 4 3 2 2 8 3 2 4 6 2 4 14 11 6 3 3 4 6
23 21 20 18 17 16 15 15 14 13 13 11 10 9 8 11 11 12 12 9 10 9 8 7 8 7 4 7 4 2 4 2 2 1 0 5 5 3 13 10 5 3 2 1 3
25 23 21 19 18 18 16 15 14 14 13 12 10 7 6 9 10 13 11 10 10 9 9 9 10 5 6 5 4 5 3 4 6 2 2 3 5 6 11 7 6 5 4 3 4
27 24 22 21 20 19 17 16 14 14 14 12 13 6 12 6 8 10 12 11 9 12 10 7 4 4 3 4 5 6 4 5 5 3 2 2 8 6 4 6 7 7 6 6 7
28 26 24 22 21 20 17 12 11 8 15 10 5 5 3 9 9 10 13 14 11 8 5 3 3 8 12 9 3 5 4 6 2 3 3 6 6 7 4 6 8 8 9 9 11
30 28 25 22 21 20 16 9 7 3 8 14 22 19 11 11 7 13 16 12 8 5 7 4 7 8 5 5 4 4 4 6 5 3 2 5 9 7 1 4 8 13 13 14 16
30 27 23 20 18 18 20 18 11 6 5 9 20 22 22 20 11 18 22 11 5 6 7 8 3 10 7 5 6 5 7 5 6 1 2 2 7 4 1 2 7 11 13 15 18
26 24 21 18 16 20 23 13 12 2 3 6 7 8 14 14 5 14 23 9 3 11 8 6 2 6 4 6 7 6 8 7 5 4 4 1 4 4 3 3 6 14 17 18 19
27 26 24 26 11 18 16 16 13 7 5 3 5 6 12 11 14 6 19 9 9 8 7 7 7 5 5 7 7 5 6 7 4 4 2 3 0 7 3 6 8 14 17 18 18
30 28 27 27 23 17 14 18 17 3 10 4 5 6 6 3 3 7 6 5 5 5 1 4 1 6 8 2 5 9 6 6 4 3 2 8 8 4 5 6 4 19 27 25 23
32 31 33 35 32 21 19 24 2 8 0 6 5 6 3 5 3 4 7 7 7 5 6 1 5 3 5 6 3 1 6 1 2 1 5 3 3 7 3 2 2 19 27 27 26
34 33 35 38 37 30 31 6 11 8 9 2 5 5 8 7 4 5 7 7 6 3 4 7 5 11 7 7 8 8 6 5 7 4 3 2 6 6 2 2 4 13 30 30 29
39 41 42 42 42 35 31 14 13 7 9 11 3 4 5 4 6 5 8 7 10 12 9 7 6 0 3 4 7 6 6 4 6 2 3 4 4 3 1 1 3 17 29 34 32
49 48 51 47 44 45 15 20 18 11 8 4 19 9 12 8 8 8 10 7 7 16 5 7 3 2 3 4 2 5 7 3 2 2 4 3 4 5 6 8 6 12 27 34 33
46 18 29 49 49 37 15 15 21 12 14 9 13 10 7 9 10 7 10 2 7 9 12 6 4 1 4 7 10 4 3 2 4 4 5 2 5 6 9 9 14 20 33 38 37
28 5 18 40 19 14 18 20 18 17 26 10 4 10 12 12 10 11 15 11 20 19 14 9 5 5 8 1 1 2 7 7 4 5 2 1 6 1 4 10 21 25 32 35 34
11 18 32 50 14 14 8 21 19 15 14 17 17 8 6 11 7 10 8 7 21 15 15 10 4 2 4 2 2 6 5 4 5 3 8 4 5 0 4 6 17 23 31 35 33
11 4 8 26 3 18 19 18 24 23 12 16 6 6 5 16 10 7 9 4 16 10 11 22 6 9 16 6 6 7 7 7 8 4 6 13 9 6 6 8 13 22 27 30 30
12 5 9 5 10 5 1 5 20 13 16 23 7 26 21 11 11 15 4 4 1 7 2 7 8 5 4 5 6 6 9 13 15 16 10 12 13 8 13 12 23 28 23 26 29
6 3 4 2 9 12 10 5 2 14 10 9 19 20 22 26 22 17 12 7 8 2 5 2 3 6 5 1 1 4 10 12 14 10 11 5 10 6 16 11 12 17 22 23 29
12 14 7 5 4 8 13 17 10 7 2 3 10 4 15 14 4 6 10 10 11 12 9 7 6 5 10 3 4 7 12 14 6 5 11 11 17 6 5 9 16 18 22 26 22
Wind_Direction
259 270 266 268 267 274 278 290 299 305 310 318 317 318 317 318 315 314 307 271 238 205 201 188 184 152 71 82 72 92 67 145 194 155 178 59 112 120 360 118 345 62 44 301 301
250 259 263 266 273 274 273 275 283 292 298 303 306 310 312 318 319 311 285 249 213 197 192 178 168 136 90 78 64 80 101 202 188 187 149 100 90 329 140 354 103 100 49 352 270
253 256 260 264 267 272 277 280 285 291 295 302 307 307 311 320 324 327 93 144 165 173 167 155 139 99 83 67 46 118 163 186 186 192 161 144 264 291 163 114 102 330 51 48 54
256 256 256 257 261 264 271 277 281 286 292 299 304 305 307 313 274 210 180 146 152 157 160 150 127 87 92 90 99 101 194 191 226 179 173 175 256 267 224 160 219 251 112 25 6
253 256 256 255 256 260 263 269 274 278 284 290 294 298 303 286 255 244 236 209 192 183 181 185 176 136 128 133 119 116 290 242 257 265 264 239 232 238 186 206 178 157 155 47 22
253 252 253 253 255 259 264 266 268 273 280 288 293 297 293 254 253 245 238 230 217 210 210 210 183 150 122 128 145 166 266 280 281 245 254 201 183 192 133 153 152 154 64 45 30
248 251 249 250 254 258 262 265 268 275 282 286 288 288 278 269 258 246 229 224 221 215 215 213 185 166 144 122 136 137 317 326 284 275 221 175 130 210 158 172 143 103 46 5 10
245 245 248 249 253 258 259 263 269 275 281 284 284 279 257 254 245 243 235 223 214 211 207 191 171 147 128 127 48 67 52 351 267 187 270 161 252 188 169 175 150 163 155 78 29
245 243 244 248 254 256 258 260 268 274 277 280 278 257 254 244 234 230 218 208 195 183 172 166 163 131 130 100 23 7 233 223 313 235 152 177 250 164 176 214 179 164 142 116 73
243 243 244 248 251 253 254 259 266 271 268 271 254 257 235 220 210 208 202 191 174 169 146 160 129 86 55 116 215 195 212 244 234 217 188 191 261 173 190 197 157 148 133 113 104
241 243 246 248 248 248 249 257 270 265 234 216 203 198 196 202 196 192 186 175 155 161 150 130 120 208 197 196 124 138 170 216 226 257 174 226 254 262 153 144 158 155 137 121 109
240 242 243 243 242 241 236 218 220 260 299 252 242 238 230 200 185 188 180 172 166 160 121 57 227 210 129 151 157 139 166 242 292 222 135 275 260 261 135 175 191 172 158 146 126
238 238 236 232 229 231 231 226 232 281 266 257 234 234 223 216 214 193 185 177 143 137 189 170 215 153 144 155 169 198 198 190 215 37 214 354 278 230 58 105 152 166 160 150 141
231 228 221 214 222 227 236 221 216 246 287 256 215 218 200 188 210 194 186 174 158 187 160 232 236 160 171 194 153 206 194 176 174 126 234 139 275 289 186 167 179 173 170 164 156
231 225 216 208 206 210 228 202 185 166 285 214 158 165 162 175 144 173 179 181 161 167 141 233 171 176 185 206 162 229 138 164 141 158 113 230 288 263 154 228 196 191 182 175 165
228 223 215 205 212 215 190 164 153 93 244 190 136 159 132 162 132 115 152 143 139 114 245 240 205 169 197 119 165 149 81 56 56 108 255 215 183 257 205 212 158 184 187 184 174
227 221 214 208 206 197 169 150 132 214 111 187 181 167 148 152 145 151 162 162 157 134 216 184 214 192 157 92 54 125 117 50 330 277 228 49 144 247 236 181 183 190 188 184 180
226 221 216 214 207 192 170 151 211 215 204 111 121 113 179 157 194 163 135 174 241 124 127 169 266 169 188 180 173 190 169 169 207 199 232 47 220 243 153 174 224 196 189 185 185
223 220 215 210 207 198 176 201 222 161 167 140 82 135 219 214 150 153 193 194 196 185 184 169 269 151 151 150 144 186 203 166 108 42 65 218 275 270 146 196 161 179 187 189 188
231 214 212 210 201 199 200 208 222 181 128 138 201 169 178 191 157 191 172 194 206 190 220 195 156 221 168 116 41 179 156 99 4 210 260 264 257 228 205 202 180 185 191 194 193
236 214 218 213 202 197 208 224 219 205 164 172 203 193 189 170 186 205 204 210 202 190 182 152 155 189 127 211 178 150 181 78 135 160 185 229 245 212 192 180 193 201 199 197 195
220 228 213 206 197 210 211 203 218 208 211 235 209 190 181 175 185 207 200 208 186 152 182 200 140 166 201 293 344 224 189 163 169 213 256 173 244 114 233 201 194 201 199 199 200
220 205 179 188 206 209 211 218 219 197 203 211 219 198 172 182 222 192 190 192 172 161 166 177 196 90 341 353 342 216 196 138 102 73 197 176 253 181 243 215 213 202 197 197 198
200 172 190 198 230 214 209 215 216 218 217 202 179 162 164 211 209 221 200 190 184 186 185 167 166 198 225 192 142 191 189 180 168 164 193 228 245 205 214 202 208 209 205 199 202
194 183 177 194 213 181 131 222 209 206 215 200 216 206 195 214 208 223 173 137 142 184 160 163 217 176 208 192 162 183 179 183 204 216 203 236 228 197 200 201 208 209 199 200 205
225 152 191 188 190 195 174 158 294 212 169 212 223 213 223 220 208 204 175 191 173 147 167 344 211 157 197 247 197 206 214 189 204 219 240 251 257 204 217 201 191 208 198 202 209
188 178 167 185 158 198 225 221 192 183 206 345 220 188 217 235 22 5 187 164 154 158 155 155 153 158 223 151 123 258 216 195 180 189 197 210 243 155 191 195 200 200 201 209 216
Height
1545 1546 1546 1547 1548 1548 1548 1548 1548 1548 1548 1548 1548 1547 1547 1546 1545 1545 1545 1545 1545 1545 1547 1547 1548 1548 1548 1549 1550 1551 1562 1572 1567 1569 1563 1562 1561 1562 1562 1562 1562 1563 1563 1564 1563
1544 1545 1545 1546 1547 1547 1547 1547 1547 1547 1547 1547 1547 1546 1545 1545 1544 1543 1544 1543 1543 1544 1546 1547 1547 1548 1548 1550 1551 1551 1564 1561 1559 1559 1561 1561 1560 1561 1562 1561 1562 1562 1563 1562 1561
1542 1543 1544 1545 1545 1546 1546 1546 1546 1546 1545 1545 1545 1545 1544 1544 1543 1542 1542 1542 1542 1543 1545 1547 1548 1548 1549 1551 1552 1553 1558 1556 1556 1557 1559 1560 1559 1560 1560 1562 1561 1561 1561 1560 1559
1541 1542 1543 1543 1544 1544 1545 1545 1544 1544 1544 1544 1544 1543 1543 1543 1546 1541 1542 1542 1542 1543 1545 1546 1548 1548 1550 1552 1553 1555 1554 1555 1555 1556 1557 1558 1558 1558 1558 1560 1560 1559 1559 1559 1558
1538 1540 1540 1541 1542 1542 1542 1542 1542 1542 1542 1542 1542 1542 1542 1542 1541 1540 1541 1542 1542 1543 1545 1546 1546 1548 1550 1551 1553 1554 1554 1555 1554 1554 1554 1555 1556 1557 1557 1558 1558 1558 1558 1558 1557
1535 1536 1538 1539 1540 1540 1540 1540 1540 1540 1540 1540 1540 1540 1541 1542 1538 1538 1539 1540 1541 1542 1544 1545 1546 1547 1549 1551 1553 1553 1554 1553 1552 1551 1552 1553 1554 1555 1557 1557 1557 1557 1556 1555 1555
1531 1533 1534 1536 1537 1537 1538 1538 1538 1538 1538 1538 1538 1538 1537 1537 1535 1536 1537 1538 1540 1541 1542 1543 1545 1547 1548 1551 1552 1553 1555 1552 1548 1549 1549 1550 1555 1554 1553 1555 1555 1555 1554 1553 1553
1527 1529 1531 1532 1533 1534 1534 1535 1535 1535 1535 1535 1535 1535 1534 1532 1532 1533 1534 1536 1538 1539 1541 1543 1544 1546 1548 1551 1553 1556 1558 1559 1548 1548 1548 1550 1554 1551 1552 1552 1551 1552 1552 1552 1552
1523 1524 1527 1528 1529 1530 1531 1532 1532 1532 1532 1533 1534 1534 1531 1527 1528 1529 1532 1534 1536 1538 1540 1541 1544 1546 1549 1554 1561 1562 1562 1562 1554 1547 1547 1549 1549 1549 1551 1551 1550 1551 1551 1551 1551
1518 1520 1522 1524 1525 1526 1528 1529 1529 1529 1529 1530 1530 1535 1526 1524 1525 1526 1529 1532 1534 1536 1540 1542 1543 1548 1552 1556 1565 1561 1563 1561 1557 1548 1548 1549 1548 1549 1549 1549 1550 1551 1552 1553 1552
1512 1515 1517 1520 1521 1522 1525 1527 1530 1528 1524 1521 1521 1520 1520 1521 1522 1524 1526 1530 1533 1536 1540 1541 1547 1548 1542 1543 1545 1551 1555 1554 1550 1547 1548 1549 1549 1542 1547 1548 1549 1551 1553 1554 1554
1506 1509 1512 1515 1516 1518 1521 1524 1524 1525 1520 1516 1516 1517 1517 1518 1520 1522 1525 1529 1531 1536 1538 1545 1546 1535 1538 1544 1546 1550 1553 1555 1550 1548 1550 1549 1549 1543 1545 1546 1546 1548 1550 1551 1554
1500 1504 1507 1510 1512 1514 1516 1520 1522 1523 1521 1510 1509 1508 1511 1515 1514 1516 1521 1523 1527 1535 1537 1540 1532 1530 1537 1544 1548 1550 1551 1552 1549 1549 1550 1550 1547 1543 1546 1547 1547 1549 1550 1553 1553
1494 1498 1502 1506 1512 1510 1511 1517 1520 1522 1525 1508 1502 1501 1504 1508 1512 1512 1516 1520 1524 1529 1536 1536 1530 1532 1536 1538 1541 1549 1542 1544 1547 1552 1557 1550 1554 1539 1543 1546 1547 1548 1550 1552 1552
1488 1492 1496 1499 1502 1504 1509 1512 1518 1521 1537 1495 1497 1499 1501 1505 1505 1509 1512 1515 1520 1524 1530 1527 1529 1532 1533 1531 1535 1538 1539 1544 1546 1551 1553 1553 1557 1538 1541 1539 1542 1547 1550 1553 1553
1480 1485 1491 1494 1498 1502 1506 1510 1517 1525 1515 1494 1494 1496 1500 1502 1504 1508 1512 1514 1517 1521 1524 1524 1523 1525 1524 1527 1530 1536 1541 1548 1555 1557 1563 1543 1544 1538 1534 1524 1533 1535 1537 1545 1550
1472 1478 1482 1486 1489 1498 1502 1507 1521 1512 1484 1491 1493 1494 1496 1502 1504 1504 1508 1512 1517 1529 1528 1523 1522 1519 1521 1529 1532 1533 1539 1554 1559 1562 1547 1546 1547 1526 1520 1524 1527 1531 1536 1541 1545
1464 1470 1473 1478 1484 1492 1496 1504 1503 1471 1481 1483 1485 1493 1495 1495 1501 1504 1508 1511 1510 1512 1524 1525 1523 1516 1514 1515 1523 1532 1530 1542 1549 1553 1543 1548 1538 1516 1518 1521 1523 1525 1530 1537 1541
1454 1457 1461 1467 1475 1482 1485 1483 1467 1462 1464 1478 1486 1491 1494 1492 1494 1501 1504 1502 1497 1501 1503 1516 1514 1507 1508 1509 1512 1527 1530 1525 1545 1582 1558 1530 1522 1514 1521 1521 1522 1524 1527 1530 1533
1435 1439 1442 1454 1463 1469 1468 1458 1454 1450 1457 1464 1465 1473 1483 1489 1491 1497 1497 1486 1487 1487 1488 1494 1505 1507 1508 1508 1512 1512 1514 1528 1538 1542 1548 1526 1521 1507 1515 1515 1522 1522 1522 1527 1530
1432 1428 1429 1440 1450 1450 1443 1443 1448 1449 1447 1458 1459 1463 1470 1477 1479 1488 1478 1477 1477 1482 1486 1489 1493 1509 1508 1506 1502 1512 1514 1519 1518 1524 1528 1537 1512 1499 1499 1504 1510 1512 1514 1518 1522
1417 1414 1416 1429 1432 1426 1426 1426 1441 1440 1446 1447 1448 1447 1456 1465 1471 1474 1468 1462 1462 1470 1481 1482 1489 1508 1501 1498 1498 1497 1498 1499 1508 1523 1532 1527 1497 1497 1497 1497 1499 1501 1506 1513 1520
1407 1410 1412 1415 1409 1414 1420 1423 1429 1434 1435 1438 1441 1441 1445 1454 1459 1457 1459 1455 1457 1462 1468 1475 1488 1507 1499 1498 1499 1497 1495 1496 1502 1514 1522 1519 1499 1500 1499 1498 1498 1498 1501 1506 1512
1399 1401 1402 1402 1402 1404 1412 1413 1418 1423 1427 1427 1429 1438 1441 1439 1442 1447 1453 1453 1454 1456 1459 1459 1474 1469 1458 1466 1476 1491 1489 1491 1487 1512 1499 1486 1486 1500 1498 1497 1497 1497 1498 1501 1506
1388 1389 1390 1394 1398 1402 1404 1402 1407 1411 1417 1420 1424 1419 1428 1437 1437 1437 1447 1451 1453 1454 1457 1454 1462 1470 1464 1463 1466 1469 1476 1484 1481 1475 1482 1474 1484 1485 1487 1488 1488 1490 1493 1497 1499
1382 1387 1389 1389 1390 1397 1400 1403 1402 1404 1410 1411 1410 1415 1418 1416 1417 1425 1434 1438 1437 1453 1454 1457 1458 1465 1471 1470 1467 1469 1466 1472 1473 1475 1475 1477 1479 1476 1477 1481 1485 1487 1489 1492 1495
1379 1382 1386 1387 1387 1390 1390 1393 1399 1405 1407 1408 1408 1413 1413 1413 1418 1419 1418 1422 1425 1433 1445 1454 1459 1461 1450 1479 1476 1468 1457 1466 1466 1470 1465 1474 1460 1473 1477 1477 1479 1483 1484 1486 1493